Wetbulb
70.36 71.98 72.88 73.78 73.59 73.13 72.78 72.25 72.25 72.65 72.93 73.58 73.80 73.87 73.78 73.79 73.91 73.87 74.12 74.21 74.48 74.65 74.11 73.89 73.83 73.22 72.92 73.09 73.44 73.53 73.42 73.13 72.90 73.09 73.19 72.89 72.82 72.65 72.41 72.28 72.35 71.67 72.76
71.31 72.54 72.43 73.42 73.46 73.42 73.05 72.52 72.47 72.63 73.14 73.44 73.48 73.42 73.34 73.49 73.67 73.74 73.99 74.05 74.45 74.16 73.71 73.56 73.54 72.82 72.20 72.46 72.68 72.67 72.58 72.48 72.33 72.75 73.05 73.37 73.22 72.50 71.90 71.78 72.04 71.37 72.18
71.62 72.55 72.35 72.73 73.36 73.42 73.18 73.05 72.81 73.10 73.23 73.23 72.93 72.89 73.04 73.38 73.41 73.48 73.70 73.80 74.03 73.76 73.29 73.22 72.82 72.15 71.68 71.82 72.10 72.02 72.10 72.10 71.83 71.99 72.28 70.39 71.07 72.46 71.86 71.84 71.93 71.72 71.56
71.91 72.39 72.04 72.35 72.92 73.07 72.86 72.85 73.09 73.54 73.23 73.05 72.74 72.77 72.92 72.98 73.09 73.21 73.34 73.40 73.62 73.63 73.04 72.89 72.42 71.58 71.25 71.33 71.27 71.35 71.44 71.29 70.68 70.27 68.82 69.71 71.05 72.07 71.69 71.52 71.39 71.28 71.27
71.62 72.23 72.46 71.82 72.29 72.92 72.80 72.64 72.75 72.98 72.65 72.48 72.67 73.01 72.92 72.83 72.92 72.97 72.52 72.79 73.59 73.65 72.92 72.99 72.47 71.79 71.00 69.85 70.05 70.58 70.66 70.49 69.90 68.51 67.93 68.47 69.30 71.06 71.53 71.39 71.32 71.25 71.20
70.40 71.30 71.19 70.89 71.53 72.70 72.76 72.75 72.67 72.54 71.89 71.80 72.10 72.80 72.89 73.12 72.92 72.60 71.82 72.50 73.55 73.88 73.48 73.24 72.81 71.80 69.80 69.17 69.15 69.51 69.57 69.68 69.19 65.85 66.73 69.51 68.72 71.31 71.55 71.22 71.15 71.08 70.83
69.41 70.73 71.16 70.37 71.36 72.15 72.85 72.70 72.21 71.82 71.30 71.55 71.82 72.17 72.69 72.77 72.89 71.91 71.61 72.33 72.88 73.55 73.51 73.38 72.79 70.84 69.53 68.99 68.62 68.54 68.45 68.33 66.00 65.54 66.95 67.60 68.18 71.37 71.10 70.95 70.66 70.64 70.55
68.88 69.79 70.83 71.44 71.35 71.56 71.92 71.95 71.20 71.10 71.09 71.17 71.31 71.70 72.29 72.25 72.03 71.67 71.55 71.93 72.53 72.66 72.70 72.34 71.76 70.50 69.56 69.00 68.53 67.90 67.46 67.67 66.85 66.61 67.06 67.24 70.02 71.05 70.81 70.54 70.46 70.37 70.27
69.50 69.08 69.15 69.78 70.88 70.66 70.21 70.39 70.03 70.23 70.46 70.54 70.78 70.76 71.16 70.73 70.71 71.12 71.15 71.75 72.11 72.00 71.93 71.62 71.00 69.86 69.33 68.90 68.30 67.40 66.66 67.21 64.75 66.12 67.57 67.50 71.19 70.40 70.18 69.72 69.98 69.75 69.59
69.24 68.79 68.79 69.29 69.92 69.65 69.69 69.29 69.54 69.79 69.90 69.92 70.34 70.03 69.72 69.90 70.01 70.51 70.23 70.66 71.32 71.64 71.39 71.01 70.28 69.56 68.97 68.20 67.53 66.93 66.19 66.88 63.94 65.45 66.21 67.39 70.72 70.28 69.94 69.69 69.69 69.36 69.34
65.33 67.20 68.48 68.75 68.90 68.50 70.32 70.34 69.65 70.26 69.94 69.45 69.99 69.83 68.20 69.88 69.38 69.71 69.60 69.35 70.31 70.29 70.43 70.27 69.74 68.88 68.03 67.60 67.33 66.83 66.36 65.23 64.26 64.38 64.94 67.42 70.49 70.77 69.96 69.66 68.95 69.20 69.39
61.87 63.64 65.81 67.53 67.96 68.23 70.40 69.53 70.24 70.48 70.72 69.60 69.76 69.49 69.92 69.81 70.61 70.07 69.54 68.81 69.06 69.30 69.19 69.19 68.97 68.25 67.60 66.35 66.19 66.99 65.47 64.84 64.56 64.15 64.66 66.70 70.14 70.65 69.94 69.64 68.86 68.93 68.89
58.72 59.16 61.11 65.00 67.15 67.11 66.67 68.05 68.66 69.17 69.40 68.72 68.70 68.25 68.41 69.47 69.98 70.05 69.96 69.72 68.43 68.63 68.48 68.34 68.00 68.02 68.25 68.07 66.94 66.35 65.42 64.75 64.89 64.81 64.95 66.10 69.51 70.90 70.33 69.60 68.89 68.67 68.51
54.46 55.07 57.37 60.58 62.78 63.50 66.04 67.55 66.53 67.50 68.63 68.54 68.77 68.07 67.62 67.50 67.39 68.85 68.49 68.75 68.26 68.63 67.98 68.16 68.16 67.89 67.49 67.45 65.87 65.37 65.50 65.12 64.75 64.83 64.28 65.34 68.13 70.77 70.72 69.94 69.10 68.47 67.92
51.28 51.24 51.88 56.88 58.72 60.22 60.41 60.96 60.05 60.91 62.06 64.58 64.40 65.94 68.59 68.93 68.39 68.32 68.34 68.32 68.25 68.39 68.12 67.97 67.34 67.09 66.59 66.32 66.56 65.56 64.42 64.67 65.25 65.01 64.44 64.54 66.17 69.16 70.65 70.53 69.19 68.52 67.98
49.74 49.75 49.55 50.09 52.70 56.34 57.98 57.94 58.30 59.72 59.95 59.26 59.51 60.15 61.12 61.91 62.70 64.39 65.60 66.67 67.37 67.30 68.12 68.07 67.33 66.81 66.30 65.99 65.50 65.41 65.00 64.74 64.84 64.50 64.33 64.71 64.60 66.92 68.76 70.11 69.87 68.57 67.92
47.12 48.66 49.62 49.50 49.53 50.91 52.59 55.72 55.51 56.43 58.41 58.71 58.20 58.38 58.06 58.59 58.33 59.64 60.70 60.85 62.18 64.11 66.29 67.48 67.26 66.85 66.19 65.72 64.86 65.08 65.06 64.57 64.58 64.32 63.78 64.44 64.71 64.65 66.01 68.03 68.68 68.67 68.45
46.54 47.92 48.52 50.11 48.30 48.30 48.48 49.37 50.08 51.07 53.31 55.51 55.16 55.09 55.59 56.10 56.55 55.79 55.89 56.91 58.61 59.76 62.56 64.44 66.27 65.56 65.29 65.29 64.82 64.42 64.16 64.39 64.31 64.16 63.78 64.13 64.94 65.92 65.12 65.88 66.91 67.44 67.30
45.94 47.34 47.21 47.25 46.98 47.38 47.73 47.81 47.81 48.40 49.13 51.23 50.90 50.93 51.72 52.68 53.52 52.33 53.02 54.08 55.18 55.98 56.99 58.93 61.52 63.48 64.73 64.55 64.37 64.65 64.06 63.39 63.59 64.13 63.28 63.44 64.50 65.43 66.79 65.30 64.90 65.15 65.57
44.68 45.86 46.42 46.72 46.15 46.23 46.29 46.10 46.25 46.36 46.98 48.51 47.99 48.58 48.88 49.14 50.00 49.49 50.42 51.26 52.59 52.91 53.59 54.72 54.84 57.25 59.15 61.35 63.74 63.33 63.86 63.65 63.25 63.43 63.34 63.09 63.86 64.79 66.21 66.08 65.08 64.28 63.19
44.28 44.99 44.97 45.07 44.78 44.85 44.43 44.08 43.81 43.61 44.45 46.26 46.84 47.66 47.61 47.61 48.32 47.70 47.54 48.45 49.56 50.14 51.58 53.21 53.43 52.64 52.70 55.77 54.28 61.01 62.88 63.29 62.75 62.99 63.34 62.83 62.88 64.06 65.27 65.30 65.12 64.74 63.04
43.23 43.39 43.66 44.14 44.14 43.99 44.09 44.05 43.66 43.33 43.67 45.40 45.38 45.38 46.46 46.39 46.96 47.20 46.60 46.95 48.14 49.44 50.44 51.42 51.70 51.54 50.83 51.55 52.26 51.62 53.00 58.45 60.49 62.35 62.87 62.26 62.36 63.47 64.01 64.30 64.08 63.86 62.68
41.80 42.11 43.35 43.65 43.73 43.50 43.53 42.92 42.65 42.46 41.98 41.91 42.01 41.85 43.24 44.66 45.99 46.07 46.24 45.73 47.01 47.45 48.21 49.85 51.20 51.37 51.34 50.49 51.71 53.16 48.48 51.39 51.60 55.85 61.11 62.00 61.90 62.34 63.16 63.53 63.07 62.90 61.77
41.02 41.49 42.52 43.11 43.25 43.23 42.52 41.21 40.42 39.68 39.51 40.73 41.23 41.26 41.79 43.49 44.81 46.05 45.14 44.58 45.45 46.03 46.13 48.43 51.31 51.18 51.50 50.85 50.55 52.27 53.53 51.33 46.49 46.31 51.55 55.82 61.66 61.69 62.21 62.59 62.23 62.08 60.61
40.86 41.34 41.94 42.30 42.25 41.86 41.26 41.07 39.71 38.19 38.93 39.81 39.88 40.60 41.59 42.83 43.43 44.51 44.47 44.14 43.98 44.74 46.23 47.89 48.59 48.77 51.66 51.44 51.38 51.57 50.42 48.84 48.55 46.72 44.90 47.16 50.25 55.14 61.97 62.04 61.73 60.91 59.72
40.65 41.10 40.94 40.79 40.81 41.83 40.69 39.99 38.33 37.41 37.82 38.62 39.24 39.53 40.89 41.88 42.54 43.35 43.83 43.07 43.53 44.63 47.33 48.69 47.63 47.96 48.52 49.13 49.98 49.27 48.92 48.43 46.50 47.15 45.99 46.60 47.16 49.85 53.75 61.23 60.55 59.74 59.09
MSLP
1011.04 1011.00 1011.33 1011.48 1011.50 1011.56 1011.71 1011.99 1012.23 1012.47 1012.60 1012.85 1013.11 1013.32 1013.69 1013.96 1014.19 1014.36 1014.57 1014.69 1014.66 1014.79 1014.99 1015.28 1015.51 1015.69 1015.83 1015.99 1016.14 1016.35 1016.48 1016.54 1016.71 1016.92 1017.03 1017.17 1017.42 1017.72 1017.80 1017.90 1018.00 1018.08 1017.94
1010.38 1010.76 1011.23 1011.23 1011.54 1011.71 1011.83 1011.89 1012.20 1012.35 1012.65 1012.90 1013.20 1013.65 1013.99 1014.21 1014.54 1014.72 1014.71 1014.86 1014.93 1015.05 1015.31 1015.48 1015.72 1015.88 1016.00 1016.24 1016.53 1016.75 1016.87 1016.86 1016.97 1017.07 1017.22 1017.31 1017.50 1017.80 1018.14 1018.25 1018.17 1018.31 1018.26
1010.57 1010.70 1011.13 1011.25 1011.35 1011.54 1011.93 1012.10 1012.27 1012.46 1012.63 1012.84 1013.17 1013.45 1013.74 1014.27 1014.57 1014.78 1014.98 1015.12 1015.23 1015.34 1015.47 1015.67 1015.85 1015.99 1016.16 1016.45 1016.72 1016.90 1017.06 1017.21 1017.40 1017.52 1017.63 1017.64 1017.71 1018.02 1018.27 1018.40 1018.43 1018.35 1018.47
1010.29 1010.83 1011.10 1011.41 1011.63 1011.80 1012.27 1012.58 1012.78 1012.92 1013.03 1013.23 1013.53 1013.85 1014.11 1014.37 1014.68 1014.95 1015.29 1015.44 1015.57 1015.67 1015.75 1015.91 1016.15 1016.28 1016.42 1016.61 1016.76 1017.00 1017.29 1017.50 1017.60 1017.77 1017.89 1018.00 1018.00 1018.02 1018.24 1018.41 1018.72 1018.84 1018.79
1010.64 1010.90 1011.23 1011.58 1011.91 1012.05 1012.42 1012.83 1012.97 1013.05 1013.23 1013.44 1013.66 1013.93 1014.19 1014.50 1014.78 1015.16 1015.46 1015.67 1015.87 1016.01 1016.13 1016.24 1016.42 1016.51 1016.64 1016.90 1017.04 1017.18 1017.36 1017.67 1017.71 1017.88 1017.96 1018.04 1018.23 1018.46 1018.43 1018.56 1018.75 1019.00 1019.12
1010.90 1011.15 1011.50 1012.00 1012.40 1012.58 1012.85 1013.12 1013.32 1013.38 1013.56 1013.74 1014.01 1014.22 1014.42 1014.74 1014.93 1015.18 1015.43 1015.70 1015.99 1016.13 1016.32 1016.41 1016.63 1016.85 1016.97 1017.19 1017.32 1017.43 1017.58 1017.69 1017.84 1018.07 1018.26 1018.18 1018.32 1018.27 1018.53 1018.79 1018.97 1019.09 1019.27
1011.18 1011.52 1011.75 1012.10 1012.43 1012.74 1013.11 1013.26 1013.50 1013.69 1013.85 1014.06 1014.27 1014.42 1014.63 1014.82 1015.05 1015.33 1015.58 1015.75 1015.84 1016.03 1016.29 1016.43 1016.74 1017.02 1017.16 1017.34 1017.43 1017.58 1017.62 1017.82 1017.99 1018.12 1018.30 1018.44 1018.49 1018.45 1018.56 1018.87 1019.20 1019.34 1019.44
1011.34 1011.56 1011.78 1012.03 1012.31 1012.68 1012.97 1013.36 1013.73 1013.93 1014.08 1014.28 1014.53 1014.71 1014.86 1015.01 1015.16 1015.32 1015.59 1015.82 1015.95 1016.08 1016.18 1016.35 1016.62 1016.80 1017.08 1017.35 1017.50 1017.62 1017.72 1017.83 1017.93 1018.09 1018.17 1018.50 1018.56 1018.60 1018.63 1018.91 1019.15 1019.47 1019.72
1012.01 1012.23 1012.50 1012.69 1012.87 1012.95 1013.10 1013.37 1013.63 1013.89 1014.17 1014.43 1014.62 1014.79 1014.94 1015.21 1015.45 1015.63 1015.74 1015.89 1016.00 1016.08 1016.21 1016.47 1016.63 1016.70 1016.97 1017.04 1017.36 1017.65 1017.80 1017.87 1018.06 1018.13 1018.24 1018.42 1018.52 1018.62 1018.70 1018.91 1019.22 1019.39 1019.63
1012.80 1012.92 1012.85 1012.91 1013.04 1013.29 1013.65 1013.75 1013.71 1013.78 1014.04 1014.35 1014.64 1014.86 1015.05 1015.32 1015.56 1015.74 1015.84 1015.84 1015.85 1015.93 1016.01 1016.15 1016.37 1016.60 1016.83 1016.99 1017.19 1017.49 1017.72 1017.82 1017.99 1018.05 1018.22 1018.41 1018.53 1018.62 1018.63 1018.97 1019.26 1019.42 1019.58
1013.93 1013.88 1013.64 1013.69 1013.80 1013.93 1013.92 1014.11 1014.30 1014.42 1014.27 1014.31 1014.60 1014.82 1015.14 1015.32 1015.52 1015.57 1015.69 1015.75 1015.78 1015.94 1016.17 1016.23 1016.30 1016.53 1016.74 1016.88 1017.03 1017.28 1017.50 1017.74 1017.84 1017.83 1017.93 1018.15 1018.16 1018.35 1018.60 1018.68 1019.06 1019.23 1019.43
1014.73 1014.64 1014.65 1014.01 1014.09 1014.20 1014.26 1014.43 1014.57 1014.43 1014.75 1014.74 1014.81 1014.96 1015.27 1015.36 1015.40 1015.58 1015.64 1015.70 1015.78 1015.88 1015.99 1016.06 1016.17 1016.34 1016.62 1016.84 1016.97 1017.16 1017.29 1017.41 1017.57 1017.55 1017.58 1017.62 1017.81 1017.79 1018.21 1018.48 1018.71 1018.89 1018.99
1015.71 1015.49 1015.24 1014.69 1014.25 1014.32 1014.40 1014.29 1014.40 1014.69 1014.97 1015.20 1015.14 1015.08 1015.07 1015.33 1015.23 1015.48 1015.54 1015.65 1015.74 1015.75 1015.79 1015.89 1015.91 1016.06 1016.19 1016.34 1016.51 1016.74 1016.94 1017.06 1017.03 1016.99 1016.99 1017.07 1017.25 1017.32 1017.64 1018.05 1018.29 1018.52 1018.77
1015.89 1016.06 1015.86 1015.55 1015.20 1014.97 1015.02 1014.86 1014.91 1015.47 1015.13 1015.50 1015.51 1015.47 1015.66 1015.59 1015.51 1015.18 1015.20 1015.27 1015.28 1015.16 1015.28 1015.49 1015.59 1015.69 1015.69 1015.74 1015.88 1015.99 1016.17 1016.38 1016.52 1016.48 1016.24 1016.24 1016.42 1016.72 1017.11 1017.50 1017.88 1018.19 1018.30
1015.49 1015.89 1016.02 1015.96 1016.03 1015.98 1015.81 1016.26 1016.33 1016.27 1016.09 1016.33 1016.21 1016.02 1015.56 1015.26 1015.41 1015.21 1015.08 1015.07 1014.99 1015.00 1014.99 1014.99 1014.99 1015.02 1015.18 1015.30 1015.37 1015.67 1015.74 1015.60 1015.70 1015.61 1015.98 1016.12 1016.29 1016.34 1016.41 1016.86 1017.29 1017.70 1018.04
1015.84 1016.01 1016.07 1016.07 1016.09 1016.03 1016.21 1016.13 1016.75 1016.93 1017.14 1017.05 1016.88 1017.00 1016.87 1016.59 1016.42 1015.97 1015.49 1015.41 1015.04 1014.88 1014.58 1014.53 1014.44 1014.66 1014.70 1014.61 1014.73 1014.80 1015.17 1015.19 1015.30 1015.38 1015.32 1015.65 1015.59 1015.70 1016.12 1016.34 1016.83 1017.04 1017.42
1016.22 1016.27 1016.50 1016.59 1016.51 1016.28 1016.24 1016.30 1016.94 1017.18 1017.35 1017.70 1017.60 1017.57 1017.19 1017.38 1017.18 1016.75 1016.56 1016.27 1015.86 1015.45 1015.01 1014.47 1014.06 1014.03 1014.12 1014.27 1014.18 1014.38 1014.50 1014.44 1014.55 1014.68 1014.87 1014.91 1015.33 1015.47 1015.31 1015.75 1016.20 1016.71 1016.97
1017.06 1017.03 1017.03 1017.19 1017.33 1017.48 1017.46 1017.49 1017.45 1017.52 1017.55 1017.61 1017.63 1017.67 1017.74 1017.53 1017.62 1017.51 1017.08 1016.84 1016.36 1015.92 1015.25 1014.74 1014.38 1013.99 1013.68 1013.63 1013.66 1013.51 1013.59 1013.54 1013.62 1013.64 1013.73 1013.98 1014.42 1014.78 1014.84 1014.88 1015.10 1015.76 1016.32
1017.00 1017.44 1017.25 1017.41 1017.95 1018.25 1018.19 1018.10 1018.26 1018.31 1018.32 1018.30 1018.18 1018.12 1017.94 1017.80 1017.79 1017.71 1017.49 1017.18 1016.79 1016.24 1015.73 1015.23 1014.63 1014.21 1013.37 1013.10 1012.86 1012.81 1012.72 1012.59 1012.65 1012.92 1013.17 1013.17 1012.89 1013.44 1014.00 1014.09 1014.28 1015.03 1015.44
1017.43 1017.05 1017.10 1017.41 1017.68 1017.99 1018.15 1018.34 1018.24 1018.19 1018.35 1018.43 1018.51 1018.31 1018.14 1018.11 1018.00 1017.91 1017.63 1017.21 1016.84 1016.52 1015.96 1015.48 1015.01 1014.49 1014.23 1013.63 1012.36 1011.75 1011.70 1011.57 1011.70 1011.51 1011.84 1012.15 1012.41 1012.17 1012.55 1013.21 1013.78 1014.18 1015.02
1017.48 1017.55 1017.29 1017.53 1018.18 1018.21 1018.09 1018.27 1018.42 1018.70 1018.55 1018.47 1018.31 1018.27 1018.27 1018.10 1017.85 1017.60 1017.43 1017.29 1016.97 1016.79 1016.42 1015.86 1015.23 1014.67 1014.09 1013.74 1013.19 1012.03 1010.63 1010.38 1010.35 1010.32 1010.53 1010.82 1010.97 1011.45 1011.43 1011.93 1012.54 1013.14 1013.91
1017.63 1017.64 1017.53 1017.88 1018.48 1018.58 1018.46 1018.40 1018.38 1018.52 1018.81 1018.87 1018.72 1018.44 1018.19 1017.94 1017.81 1017.71 1017.65 1017.37 1016.95 1016.54 1016.16 1015.78 1015.45 1014.95 1014.47 1013.99 1013.96 1013.34 1011.46 1010.30 1009.77 1009.59 1009.28 1009.37 1009.65 1010.14 1010.33 1010.44 1011.18 1011.81 1012.85
1017.73 1017.78 1017.78 1017.88 1018.18 1018.67 1018.72 1018.51 1018.50 1018.64 1018.81 1018.79 1018.51 1018.35 1018.12 1017.80 1017.58 1017.41 1017.30 1017.16 1016.95 1016.64 1016.27 1015.80 1015.43 1015.14 1014.56 1014.24 1014.27 1014.10 1012.79 1011.41 1011.55 1010.06 1008.94 1008.32 1008.32 1008.62 1008.78 1009.33 1009.76 1010.70 1011.11
1017.79 1017.74 1017.82 1017.93 1018.31 1018.60 1018.81 1019.07 1019.23 1019.45 1019.53 1018.97 1018.62 1018.23 1017.94 1017.57 1017.24 1017.05 1016.99 1016.91 1016.82 1016.57 1016.21 1015.70 1015.19 1014.93 1014.73 1014.35 1014.25 1013.85 1013.36 1013.21 1012.90 1011.17 1009.80 1008.92 1007.95 1007.38 1007.45 1007.47 1008.18 1008.87 1009.47
1017.96 1017.88 1017.93 1018.26 1018.65 1018.95 1019.21 1019.37 1019.62 1019.60 1019.19 1018.60 1018.31 1018.09 1017.82 1017.50 1017.24 1016.97 1016.79 1016.65 1016.46 1016.21 1015.80 1015.51 1015.06 1014.74 1014.41 1014.28 1013.96 1013.82 1013.51 1012.96 1013.00 1012.95 1011.56 1010.08 1008.60 1008.39 1006.26 1006.14 1006.23 1007.12 1007.92
1017.94 1017.80 1017.97 1018.40 1018.79 1019.04 1019.21 1019.42 1019.65 1019.49 1019.04 1018.76 1018.49 1018.34 1018.04 1017.65 1017.21 1016.81 1016.67 1016.39 1016.16 1016.02 1015.67 1015.31 1015.05 1014.72 1014.46 1014.07 1013.86 1013.57 1013.20 1013.22 1012.39 1012.07 1011.62 1010.49 1009.41 1007.81 1007.80 1003.80 1004.80 1005.76 1006.45
Wind_Speed
6 9 12 10 10 10 13 13 14 15 16 15 14 14 13 14 14 14 14 14 14 14 15 13 12 11 11 11 11 11 10 11 11 12 12 14 14 14 13 13 11 8 13
11 11 13 14 12 11 12 14 14 15 16 16 16 15 14 14 13 13 13 13 13 14 14 13 12 11 11 11 11 10 10 11 11 11 12 13 15 14 12 11 11 9 12
11 10 11 12 14 13 11 12 12 13 15 16 17 17 16 15 13 12 12 11 12 13 14 13 12 12 12 12 10 10 10 11 10 10 10 5 7 13 12 11 10 12 12
11 9 8 10 10 12 10 9 10 11 12 13 13 13 14 14 14 12 11 10 11 11 13 12 11 10 10 10 10 10 10 10 10 9 5 4 7 14 13 12 10 10 12
9 7 8 10 10 12 11 9 10 10 10 11 12 13 13 13 12 11 10 9 8 9 10 10 9 9 8 9 9 10 10 10 10 7 5 5 5 10 13 12 10 9 8
7 5 8 7 6 8 8 8 8 8 8 8 9 10 10 10 10 11 10 9 8 8 8 8 7 6 7 8 8 9 9 9 5 4 4 6 4 12 12 11 9 9 9
7 6 8 10 8 8 8 7 6 6 5 6 7 8 8 9 9 9 9 9 10 9 8 7 8 7 7 7 8 7 7 7 2 4 5 4 4 12 13 12 11 9 9
7 5 5 9 9 9 8 7 6 5 5 5 5 6 7 8 8 10 9 9 9 9 9 9 9 9 9 8 8 6 6 7 5 5 6 4 7 12 13 14 12 10 9
7 5 5 4 3 4 6 6 6 6 5 5 6 5 5 5 5 7 9 9 9 9 9 8 10 9 10 10 9 6 6 5 5 4 5 4 12 12 13 14 13 13 12
6 4 4 4 4 4 3 5 7 7 7 6 6 5 5 3 4 6 8 10 11 12 12 11 11 10 10 9 8 8 8 7 5 5 4 4 12 14 14 13 14 13 13
9 7 4 4 3 1 4 4 3 3 5 6 6 6 4 3 4 7 8 10 11 11 10 10 10 10 10 10 9 9 9 4 5 4 4 10 14 16 16 16 14 13 12
11 10 9 4 1 2 2 2 1 2 4 2 3 4 3 4 4 5 6 10 10 10 10 11 11 10 8 4 3 7 4 5 5 5 4 15 16 19 18 18 17 16 13
6 9 11 8 7 6 4 2 2 1 2 3 4 3 3 3 3 3 3 4 5 8 5 7 7 6 8 7 8 7 5 6 5 6 7 16 20 21 20 21 21 19 15
9 9 8 9 10 12 7 5 2 1 3 2 3 4 3 2 3 4 5 6 7 6 8 8 6 8 11 13 9 8 10 7 6 6 9 17 22 23 22 23 23 22 19
12 9 8 10 10 9 12 8 10 10 9 10 10 11 7 3 3 3 4 5 6 5 6 8 9 10 11 12 12 11 10 11 10 7 6 15 20 23 24 25 25 25 23
10 9 7 10 7 10 10 12 8 7 6 7 7 9 10 7 7 7 8 7 5 4 5 7 8 9 10 10 11 12 11 10 11 9 7 8 21 24 23 25 25 26 25
6 7 9 9 7 10 9 9 7 6 6 6 8 9 11 8 8 8 6 6 7 8 9 7 8 9 8 7 10 10 10 12 10 11 9 8 10 21 21 24 25 24 24
7 10 8 8 9 8 8 6 5 5 5 6 6 6 9 10 10 8 8 7 7 7 7 7 7 7 9 9 9 9 11 11 13 13 11 10 9 12 18 24 25 25 25
8 9 10 9 9 8 7 6 6 7 5 4 4 4 7 7 7 5 4 5 7 7 7 7 8 9 9 8 9 10 10 11 13 11 13 14 15 14 12 22 25 25 26
7 9 9 8 7 5 4 4 4 4 4 4 4 4 6 5 7 5 5 6 5 5 6 6 7 8 7 11 10 11 11 12 11 13 14 14 14 16 17 18 15 16 23
7 8 7 9 5 3 4 3 3 3 3 3 4 6 7 7 7 7 5 6 5 5 8 9 7 6 5 5 7 11 11 13 15 14 13 14 16 17 18 17 13 12 13
7 7 7 8 6 3 3 2 2 2 1 1 1 3 4 5 5 5 5 6 7 6 8 8 9 7 3 2 4 8 6 7 8 13 13 14 19 16 18 20 19 19 16
7 7 6 7 6 4 4 2 3 3 2 2 2 3 3 5 6 5 6 6 7 6 6 6 7 9 7 3 3 3 4 4 13 4 15 14 18 17 18 19 20 21 20
5 5 6 5 5 5 5 5 4 1 1 2 3 3 5 5 6 5 5 6 5 4 8 6 5 5 4 7 4 4 5 2 5 9 3 9 13 20 22 17 20 21 22
6 6 6 6 5 5 6 5 3 2 2 3 4 9 8 7 6 5 5 5 5 4 6 8 6 5 3 4 4 5 6 4 6 8 12 12 11 12 19 20 18 17 22
5 5 5 7 5 6 5 3 3 2 4 4 5 5 6 7 7 7 6 6 5 5 6 5 6 6 6 6 6 6 5 8 4 5 7 11 13 14 14 15 19 16 18
Wind_Direction
203 170 169 155 141 130 120 117 118 120 119 117 114 111 111 115 123 127 132 137 138 136 134 131 127 125 122 116 113 112 111 105 105 110 115 119 117 111 108 105 101 99 106
153 161 172 155 150 138 135 136 137 132 132 130 128 128 128 129 130 134 137 141 138 139 141 139 137 133 129 127 125 122 117 107 109 114 126 123 119 116 113 107 108 110 109
150 155 166 164 157 147 152 148 144 141 141 142 143 142 138 136 136 142 143 143 146 148 149 148 147 145 140 133 128 128 124 116 105 102 106 102 116 118 119 112 110 115 115
143 150 159 168 163 148 151 149 148 147 146 143 138 135 136 141 149 148 145 147 151 155 154 152 149 144 139 132 134 133 131 124 115 99 87 92 114 126 127 123 121 122 126
133 147 158 165 167 153 155 162 162 156 153 149 144 143 145 151 150 147 152 154 155 158 159 154 150 148 142 141 141 140 140 140 123 108 117 117 119 135 133 130 129 129 123
124 128 134 136 150 148 155 165 170 161 160 155 148 146 151 156 154 158 161 158 159 167 172 164 158 154 159 152 150 149 154 159 147 128 144 139 134 146 139 133 128 125 127
128 133 145 142 148 165 176 175 179 171 169 169 163 161 167 167 164 167 170 172 176 178 182 170 162 174 182 173 169 164 163 153 149 150 148 144 163 151 147 145 138 133 130
140 145 151 167 166 174 180 182 178 169 180 186 193 191 190 184 181 177 182 187 189 190 192 187 180 187 196 193 189 182 168 168 159 158 148 156 175 159 152 151 142 135 134
63 85 87 96 148 167 184 179 176 177 178 192 202 209 212 209 205 200 195 199 201 204 205 195 197 200 203 206 198 191 183 187 163 164 160 160 174 171 167 162 154 149 147
61 84 133 151 163 182 196 196 188 182 180 196 205 213 219 224 217 220 216 213 211 215 211 204 203 204 211 217 204 197 190 194 180 171 166 173 181 181 174 171 168 162 167
40 16 24 0 352 349 204 229 224 224 202 194 204 209 214 225 226 225 224 225 225 225 223 220 213 209 216 222 221 202 187 195 197 187 175 189 191 189 188 171 179 175 187
40 29 24 353 11 359 329 327 321 250 252 240 209 200 208 214 219 225 235 233 234 232 229 225 223 212 212 224 236 229 207 191 201 204 197 191 197 195 193 179 182 183 181
45 38 23 18 42 34 357 250 207 49 309 327 295 247 231 220 209 211 235 246 239 238 236 236 233 221 216 215 226 226 215 200 204 206 207 194 197 200 196 189 185 185 173
71 48 32 28 33 32 28 8 7 341 348 352 343 319 292 273 269 237 251 248 241 221 222 223 228 230 228 223 214 210 220 211 208 212 211 198 196 199 198 196 191 188 183
87 73 50 50 50 43 54 43 46 35 36 28 27 5 3 286 284 275 253 250 251 239 226 234 234 235 233 230 227 223 220 220 216 213 214 209 201 202 200 195 200 194 190
104 96 90 70 71 70 63 61 54 42 29 35 33 29 22 26 6 10 359 346 327 274 247 237 234 239 239 233 228 224 230 227 235 227 215 204 200 203 205 197 202 201 197
89 90 73 76 59 64 75 77 64 50 42 34 39 27 29 20 17 16 1 1 351 330 313 277 250 238 237 234 236 234 229 229 226 227 215 208 211 206 202 200 197 204 201
87 82 68 62 55 54 62 58 68 58 68 63 48 40 28 23 14 0 359 349 342 334 325 312 286 259 242 236 234 229 233 235 230 223 208 205 199 209 209 201 194 199 200
105 92 77 70 58 51 49 53 45 43 46 38 31 30 22 20 9 6 340 323 326 331 328 325 322 310 273 245 240 237 229 225 226 229 220 212 203 200 209 208 195 197 197
103 103 93 79 73 78 89 75 63 66 42 42 27 32 27 9 3 357 333 331 328 323 316 313 313 315 313 302 262 236 236 230 226 218 217 214 215 204 203 207 201 195 197
96 99 99 92 71 64 55 50 26 31 13 36 27 18 12 0 352 346 346 337 334 330 314 305 297 296 313 326 317 304 255 234 230 222 214 214 209 210 206 205 198 198 193
109 101 98 101 92 76 97 137 118 118 334 154 325 351 348 337 331 330 335 335 328 333 329 324 316 310 283 339 315 293 301 264 241 239 218 210 213 209 211 204 198 194 191
115 117 103 95 93 75 72 66 41 37 347 314 321 297 301 298 300 308 328 324 314 326 317 310 311 310 306 316 271 270 320 304 341 284 236 220 212 210 207 202 196 196 187
138 118 118 117 91 71 56 59 67 117 264 262 266 288 309 293 281 281 291 292 293 298 304 294 293 280 300 314 303 224 240 283 294 310 354 294 250 219 210 201 199 196 187
155 159 153 118 96 85 80 74 70 31 286 312 339 344 339 331 308 293 291 296 289 285 286 290 301 288 278 287 297 313 291 227 210 238 284 301 307 313 231 204 197 193 190
168 166 161 128 102 83 89 109 108 41 359 360 351 347 335 327 324 322 319 305 295 289 290 311 303 305 299 298 292 291 291 290 245 216 251 274 291 299 294 230 198 192 184